Wind_Speed
3 8 4 4 10 10 12 12 9 5 14 16 5 14 13 10 7 8 11 12 13 14 15 18 23 25 27 24 25 11 18 19 19 22 18 19 19 20 20 18 17 15 14 13
9 8 6 6 7 8 11 10 11 12 9 15 11 13 11 9 9 10 11 12 13 14 16 17 24 26 27 25 26 26 18 18 21 22 20 20 19 18 20 18 18 17 15 14
3 3 3 7 11 11 11 11 8 12 6 4 10 11 9 8 9 10 11 13 14 15 15 21 24 26 25 25 35 20 18 19 21 19 17 17 18 18 18 19 18 17 16 14
5 2 5 4 8 7 10 8 7 2 7 8 12 11 9 8 9 10 11 13 13 13 19 23 25 24 24 30 33 10 10 10 15 19 17 16 15 17 16 16 18 18 16 15
4 5 7 8 8 8 10 4 9 6 7 7 13 10 9 9 10 11 12 12 14 18 20 22 24 24 24 30 28 20 18 15 13 13 14 16 15 15 15 15 14 15 15 14
5 5 2 7 10 12 17 3 7 6 8 8 7 3 3 10 10 11 13 15 16 18 20 22 28 27 24 27 26 21 18 16 18 16 15 13 10 11 10 12 12 15 13 11
8 6 5 14 11 7 5 4 7 8 9 9 5 5 5 8 10 12 14 16 16 15 18 22 27 27 22 24 25 24 15 30 29 23 20 12 11 9 10 17 20 19 18 14
4 5 2 19 5 5 1 6 7 10 9 8 7 6 6 8 10 12 14 17 17 15 17 23 25 24 18 22 22 17 16 34 29 34 23 21 23 20 18 21 27 22 21 21
6 4 7 10 9 9 8 7 8 9 8 6 6 7 7 8 11 12 15 16 16 16 17 19 22 21 19 22 22 23 36 34 32 29 27 25 30 24 25 25 23 19 20 20
6 6 6 8 9 9 9 9 10 10 9 7 7 6 8 8 9 10 15 16 16 16 17 19 21 21 21 20 19 23 30 33 30 33 35 31 33 31 26 21 20 18 19 19
3 4 1 7 9 9 7 8 9 10 10 9 7 8 9 9 9 11 13 15 16 16 17 19 20 21 22 24 19 24 25 21 22 26 34 36 40 32 31 30 22 21 21 20
3 6 3 6 7 8 9 10 10 9 8 10 10 10 9 9 12 13 14 15 16 18 18 18 18 20 22 21 22 21 21 20 23 26 28 29 30 36 43 40 38 35 32 32
2 5 9 7 7 9 9 9 10 10 10 9 11 10 9 9 11 12 14 16 16 16 17 18 19 21 22 21 23 24 20 18 19 22 22 22 21 24 25 33 36 36 34 32
5 1 4 7 5 6 6 6 6 7 10 12 10 10 10 10 12 13 14 14 15 16 17 18 18 20 20 19 19 20 20 19 19 19 19 20 20 20 19 20 22 26 29 28
6 8 8 6 5 6 7 4 4 7 8 9 10 10 10 11 12 13 14 13 13 16 18 18 19 19 17 17 17 17 16 16 17 19 19 19 18 17 17 18 19 18 17 21
1 5 5 5 5 5 6 8 6 6 6 7 9 9 10 10 12 12 14 15 16 17 18 18 18 17 16 15 14 15 16 16 15 16 16 16 16 16 17 17 17 17 17 14
4 1 3 3 3 4 6 6 7 6 7 9 9 10 8 9 12 13 14 14 15 17 17 18 18 15 15 14 12 12 12 14 14 15 15 15 16 17 16 17 17 18 18 18
6 5 6 5 5 4 5 7 8 9 9 9 9 11 12 12 11 11 11 10 10 16 18 17 15 15 15 15 13 12 11 12 14 14 14 15 16 15 16 17 17 17 16 16
9 7 8 9 8 7 8 8 9 9 9 9 10 12 11 11 10 10 10 11 12 13 16 15 15 14 15 16 13 12 12 13 13 13 14 14 15 15 15 15 15 14 14 14
9 10 11 11 11 9 9 9 8 9 8 8 8 10 10 10 9 7 9 14 13 12 11 13 11 12 12 13 12 11 12 13 13 13 13 14 14 15 15 15 14 14 14 14
9 9 10 10 11 11 10 8 8 9 9 10 10 10 9 9 10 14 10 12 14 14 12 13 14 12 11 10 11 12 12 12 13 13 13 13 13 13 13 13 13 12 12 12
8 9 9 9 10 11 10 9 9 9 9 9 8 6 2 6 6 11 13 13 11 14 12 13 13 14 12 11 12 12 11 12 12 12 12 11 11 11 12 11 11 10 10 10
9 9 9 9 9 9 9 9 9 9 9 9 9 10 9 9 10 9 9 12 11 12 11 13 13 13 12 12 12 12 12 12 12 11 11 11 11 11 10 10 9 9 9 9
9 9 9 7 4 6 8 7 7 7 7 8 8 8 9 6 7 9 8 9 11 12 13 12 13 13 11 11 11 11 11 11 11 10 10 10 10 9 9 8 8 8 8 8
8 7 6 4 5 6 5 4 4 4 4 6 6 7 8 8 8 7 7 8 9 8 8 12 12 12 11 10 10 10 9 9 9 8 8 8 8 8 7 7 7 6 6 5
4 5 5 6 5 4 4 3 4 3 3 3 5 5 5 6 5 6 6 6 7 8 8 8 9 9 9 9 9 9 8 8 8 8 7 7 6 6 6 5 5 4 4 3
4 2 3 2 2 2 3 3 3 3 3 3 3 3 4 4 4 5 4 5 6 6 6 6 7 8 7 7 7 7 6 6 6 5 5 5 5 4 4 3 3 2 2 1
Wind_Direction
345 260 291 239 216 220 227 235 244 262 300 132 88 70 61 38 10 4 2 350 340 341 338 337 338 340 330 322 327 230 191 184 176 179 176 179 177 171 167 172 171 173 166 177
278 240 270 261 259 264 260 258 268 276 275 66 77 73 58 34 9 6 360 344 342 347 341 340 337 339 325 328 329 322 171 167 168 179 180 177 174 169 166 170 174 170 168 175
292 349 314 262 249 248 249 258 270 268 33 82 85 74 56 30 17 7 353 345 355 352 345 342 339 338 329 340 330 301 165 166 172 173 171 163 166 169 173 172 172 180 174 180
300 246 225 68 353 282 250 44 345 9 34 11 101 95 70 37 14 7 358 358 1 354 347 348 342 343 339 10 349 18 97 137 176 172 163 163 162 171 178 178 174 176 177 189
273 274 272 151 31 2 349 85 24 29 32 32 130 125 67 37 21 25 11 9 2 355 355 346 353 348 4 19 358 6 47 44 51 107 145 157 169 173 173 171 171 173 180 192
283 262 269 25 22 343 325 119 49 51 38 8 191 255 39 13 20 28 20 18 6 2 3 359 357 359 17 21 3 6 20 41 46 58 85 103 120 136 139 171 148 147 130 128
249 250 114 360 357 346 267 40 32 52 46 28 67 53 23 10 27 29 25 17 11 12 8 8 2 7 17 26 13 1 13 55 54 55 54 77 102 111 127 127 130 118 113 101
260 232 215 356 69 22 185 26 39 48 47 61 72 63 38 29 27 24 20 18 14 19 14 15 12 6 9 37 25 15 35 55 48 54 43 58 77 82 97 112 108 103 101 84
13 29 26 28 57 20 35 56 39 50 52 53 61 56 39 31 29 26 24 16 17 21 17 16 15 17 11 18 22 32 43 43 48 54 49 53 62 64 65 78 79 78 80 76
322 39 39 22 26 35 32 45 41 41 52 56 60 50 52 40 33 25 18 22 17 22 22 16 13 14 18 22 43 51 45 40 43 51 51 47 55 57 60 61 73 79 81 80
90 119 324 73 30 14 30 32 48 50 42 35 49 47 44 40 36 28 24 22 25 25 27 22 13 18 20 17 34 53 60 60 60 62 67 63 61 60 64 65 77 79 77 81
6 338 294 53 39 29 36 28 30 36 52 47 32 40 37 42 33 25 24 23 26 26 30 29 28 24 26 30 39 49 55 49 54 59 64 67 69 69 66 72 75 79 82 86
30 38 68 80 52 37 42 35 22 31 32 39 46 37 36 46 34 35 29 22 24 26 27 30 32 31 27 35 49 52 53 54 56 62 65 72 73 75 75 66 68 71 76 81
46 41 108 24 48 36 30 26 33 28 38 39 39 45 45 46 42 34 28 26 24 24 28 29 34 37 33 41 52 58 60 59 63 67 68 68 69 72 77 76 75 71 70 75
63 65 71 73 43 21 351 339 25 36 37 44 48 48 46 50 48 37 26 20 32 34 30 26 29 29 29 43 54 61 70 72 77 76 76 78 77 77 78 79 82 85 78 68
108 93 86 61 46 22 7 2 14 29 27 41 51 49 56 59 58 50 42 38 36 29 27 26 27 18 23 40 56 67 69 72 80 84 84 86 87 87 83 79 73 68 60 63
206 171 21 69 62 26 28 18 19 26 32 41 39 32 47 71 60 49 42 40 38 35 28 26 21 23 31 42 58 66 67 67 71 78 80 81 82 81 82 81 79 74 68 59
46 40 29 16 13 30 50 37 37 39 42 47 55 61 57 56 57 49 37 38 53 41 27 23 23 28 35 40 51 59 66 71 71 74 78 78 81 83 86 89 88 86 84 77
56 60 45 42 33 47 54 52 51 56 50 57 63 63 61 56 53 51 51 47 43 39 16 14 25 31 36 44 55 60 69 74 75 76 79 82 82 85 88 91 92 92 90 87
67 67 70 66 61 68 70 66 68 63 55 61 66 57 53 41 32 35 67 62 44 28 23 18 30 39 43 47 64 73 76 78 81 79 81 84 85 87 86 85 88 87 88 88
75 74 73 75 74 70 67 66 68 66 58 56 63 59 52 41 32 27 38 47 28 19 27 34 36 34 38 47 58 63 69 72 75 77 80 83 85 87 87 87 87 90 91 92
92 87 86 85 81 75 65 66 70 67 63 60 53 34 8 60 85 72 55 33 29 27 32 33 32 35 43 51 61 66 70 75 78 82 85 90 92 92 90 90 91 95 96 95
93 89 83 76 75 77 74 68 66 65 65 57 50 44 48 43 29 23 44 27 34 31 42 37 36 38 46 55 61 66 70 74 78 83 87 90 92 94 97 100 100 97 93 89
98 91 89 85 90 77 72 68 68 65 70 71 51 29 22 43 59 52 58 48 44 48 48 43 42 43 52 58 60 63 65 69 73 77 79 80 84 88 89 87 85 83 81 79
104 104 104 132 105 82 81 70 100 87 77 67 56 49 46 45 54 45 46 42 38 46 41 36 43 46 53 57 60 61 63 63 65 70 72 77 80 81 81 82 81 81 80 80
151 98 80 46 52 57 55 36 44 40 38 65 53 40 43 48 54 55 53 52 48 45 45 40 41 47 50 56 58 60 61 60 60 67 73 75 79 80 82 84 83 78 78 83
120 147 139 144 110 60 29 23 2 58 38 47 62 49 53 54 60 63 61 54 50 49 46 42 41 46 52 52 53 53 54 53 78 73 72 77 78 82 87 83 86 81 66 55
Height
688 687 674 681 678 661 664 666 675 672 673 677 685 685 697 705 709 709 711 712 711 708 706 699 694 690 684 675 665 659 661 663 666 669 673 677 682 684 686 692 697 703 705 711
686 676 675 675 668 666 663 662 662 659 662 665 683 690 703 714 714 717 719 719 716 712 709 704 700 692 685 674 666 660 657 660 664 668 670 675 680 682 686 691 696 702 704 709
688 679 678 683 674 672 669 665 668 674 677 682 699 708 721 724 727 727 726 721 718 716 713 708 703 694 685 673 664 657 655 659 662 666 669 673 678 681 686 691 695 700 703 708
695 690 696 675 672 669 669 676 680 682 688 689 706 723 731 733 731 730 730 725 723 721 716 711 706 698 688 672 666 656 656 658 661 663 667 672 676 681 686 690 695 699 702 707
701 689 679 673 693 700 693 703 701 700 704 703 716 724 732 734 733 734 734 731 727 724 720 717 709 700 689 678 678 673 664 663 661 663 667 668 676 681 685 689 694 697 701 706
703 697 694 717 704 704 699 701 716 712 711 708 710 709 730 733 736 737 737 735 731 726 724 719 712 704 691 689 687 682 678 671 667 665 663 670 675 679 684 688 691 694 698 704
702 697 696 711 703 709 704 724 722 718 719 719 724 732 738 740 740 740 742 739 735 732 728 723 715 708 702 697 693 690 687 671 671 671 674 676 677 680 683 685 689 694 699 705
699 700 706 725 711 722 739 732 729 728 729 733 736 740 743 743 741 742 742 741 740 736 732 725 720 715 712 703 703 701 696 676 681 672 684 681 679 683 687 690 689 700 704 709
730 735 745 744 746 742 736 735 734 734 737 739 740 743 744 745 744 746 747 746 743 740 737 733 728 722 716 707 705 702 686 686 686 689 691 690 684 692 692 695 702 709 712 716
731 756 756 756 754 750 746 744 743 741 742 744 745 746 747 748 748 749 751 749 747 745 742 738 734 730 724 722 715 711 700 697 702 699 696 700 697 698 704 711 714 717 720 724
747 757 757 759 762 761 757 753 750 751 750 749 748 748 748 751 753 753 754 753 752 751 749 744 740 736 730 724 723 715 717 725 724 719 712 717 714 717 720 724 724 725 728 730
753 766 762 766 768 767 765 762 759 757 757 759 756 755 754 756 758 756 756 756 756 756 755 753 749 743 739 734 727 724 726 731 727 723 721 725 730 733 735 736 735 736 738 738
768 771 770 772 773 772 772 772 770 765 764 761 764 764 763 763 764 763 762 761 759 759 758 756 755 751 745 741 737 734 735 738 736 733 733 737 743 743 746 751 750 750 751 751
775 773 773 775 774 776 775 775 774 773 771 769 769 769 770 769 769 769 768 767 766 764 761 760 759 756 754 751 747 744 746 746 744 745 745 746 750 752 756 758 760 763 764 763
777 777 778 780 780 778 776 773 771 772 772 775 776 777 777 776 776 777 775 773 773 770 768 765 763 761 759 757 754 754 756 757 756 755 756 756 758 763 764 766 766 768 771 772
779 779 780 782 781 782 778 775 773 777 779 779 781 782 782 782 782 784 784 782 778 776 775 772 769 767 764 761 762 763 764 764 763 762 764 765 768 769 771 773 775 776 777 779
777 775 779 782 783 784 783 784 783 784 784 785 787 788 786 786 787 787 786 785 784 782 780 777 775 774 772 770 768 768 768 768 768 769 770 771 772 773 776 778 780 783 784 786
786 786 787 786 784 785 788 789 790 791 792 793 794 793 794 793 793 793 792 791 789 788 787 786 783 780 776 774 772 772 774 774 773 774 775 776 776 780 783 783 785 788 794 794
794 795 796 795 793 793 794 796 798 798 798 798 797 797 798 799 798 797 797 796 795 795 795 791 788 785 781 778 777 778 778 779 780 781 780 782 784 786 788 791 792 795 797 799
800 802 802 803 803 802 802 803 802 803 802 801 800 800 801 802 801 799 798 799 800 800 799 796 794 792 790 788 787 788 787 786 788 789 788 789 792 793 794 796 795 798 801 802
806 807 807 808 808 807 806 807 807 807 806 805 803 804 805 805 804 800 798 798 801 800 799 798 796 795 794 793 791 789 789 791 790 790 792 794 795 796 798 800 801 804 806 808
809 810 810 810 810 810 811 812 811 810 810 809 808 807 807 807 806 806 806 805 805 803 803 802 801 800 798 796 795 795 795 795 795 795 797 799 801 802 803 804 807 810 811 810
811 812 813 813 813 814 815 814 814 814 813 812 812 812 811 811 810 808 808 810 808 808 807 807 806 804 803 801 801 801 801 801 802 803 804 804 804 805 807 809 812 812 811 811
813 814 815 815 815 814 815 816 816 816 816 816 816 816 814 814 815 814 814 814 813 812 811 811 810 808 807 806 806 805 805 805 806 806 806 806 807 809 810 811 812 812 812 813
816 817 817 816 815 816 817 818 817 817 817 818 819 819 818 818 817 817 816 816 815 815 816 815 814 812 811 811 810 810 810 809 809 809 809 810 810 811 812 813 813 814 815 816
815 815 816 817 817 817 817 817 817 818 818 819 820 820 820 820 820 820 820 820 820 819 819 818 817 816 815 814 814 813 813 813 813 813 813 813 814 814 815 816 817 817 818 818
817 817 817 817 818 818 819 819 818 819 820 820 821 822 822 823 823 822 822 822 822 821 821 821 820 819 818 817 817 816 816 816 816 816 816 816 817 817 817 818 818 819 819 819